STARLINK-34749, 65675

Orbit data source: Space-Track

STARLINK-34749, 65675 is a payload satellite owned by SpaceX/Seattle (US) in SSO that was launched on Fri, 19 Sep 2025 UTC via an FALCON 9 launch vehicle from the Air Force Western Test Range (AFWTR). Payload-class satellites include a variety of spacecraft equipped with specific instruments for various scientific and technological missions. These include communications satellites like Starlink; space stations such as the ISS; scientific satellites like the Hubble; Earth observation satellites from companies like Planet Labs, Umbra, and HawkEye 360; GPS; miniature CubeSats for education and research; and military/defense satellites.

Loading next visibility...
Identifier
65675, 2025-211Z
Orbit
SSO
Country
Flag of USUS
Related business
Manufacturer
SpaceX/Seattle
Mission
Operational Commercial Communications
Bus & Motor
STARLINK V2MO, Unknown motor
Mass
575 kg wet, ~530 kg dry
Launch date (UTC)
2025-09-19 (9 months ago)
Launch vehicle
FALCON 9
Launch site
Air Force Western Test Range (AFWTR)
Object type
Payload
Rocket body
Debris
Shape & HBR
Box + 2 Pan, 17.7 m
Radar Cross Section
36.964 m², Large (>1 m²)

Expand to show TLE details & history
Last TLE update: 23 hours ago

TLE from 23 hours ago
0 STARLINK-34749
1 65675U 25211Z   26170.87983203  .00003404  00000-0  23971-3 0  9992
2 65675  97.3388 213.8007 0001940  91.7224 268.4226 15.05661764 42422
Epoch: 2026-06-19T21:06Z
TLE epoch observation values (Epoch: 2026-06-19T21:06:57.487Z)
Latitude
0.00001°
Longitude
-11.0413°
Altitude
552.585 km
Speed
7.585 km/s
True Right ascension
14h 15m 12s
True Declination
0° 00' 00"
Sunlit
Object was in full shadow at epoch
Visualization orbit readout
Latitude
Unknown
Longitude
Unknown
Altitude
Unknown
Speed
Unknown
Apparent Right ascension
Unknown
Apparent Declination
Unknown
Sunlit
N/A
Visualization observer readout
Local Sidereal Time
07:12:23
Azimuth
Unknown
Elevation
Unknown
Doppler factor
Unknown
Orbital elements
Apogee altitude
547.801 km
Perigee altitude
545.114 km
Semi-major axis
6,924.594 km
Eccentricity
0.00019
Inclination
97.3388°
RAAN
213.8007°
Arg. of periapsis
91.7224°
True anomaly
268.40038°
Mean anomaly
268.4226°
Eccentric anomaly
268.41149°
Mean motion
3.76662 °/min
Orbital period
95.58 mins
BSTAR
0.00023971
Loading maneuver chart data...
Computing Atmospheric mass density...
Loading historical data...
Loading historical data...
Loading historical data...
Loading historical data...
Loading historical data...
Loading historical data...
Loading historical data...

Documentation

Showing up to 5 results
|